Time,TemperatureF,DewpointF,PressureIn,WindDirection,WindDirectionDegrees,WindSpeedMPH,WindSpeedGustMPH,Humidity,HourlyPrecipIn,Conditions,Clouds,dailyrainin,SoftwareType,DateUTC
2013-05-12 00:05:00,75.7,72.2,30.03,SSW,202,0.0,0.0,89,0.00,,,0.00,Wunderground v.1.15,2013-05-12 04:05:00,
2013-05-12 00:10:00,75.5,72.0,30.03,SSW,202,0.0,0.0,89,0.00,,,0.00,Wunderground v.1.15,2013-05-12 04:10:00,
2013-05-12 00:15:00,75.4,71.9,30.03,SSW,202,0.0,0.0,89,0.00,,,0.00,Wunderground v.1.15,2013-05-12 04:15:00,
2013-05-12 00:20:00,75.3,71.8,30.03,SSW,202,0.0,0.0,89,0.00,,,0.00,Wunderground v.1.15,2013-05-12 04:20:00,
2013-05-12 00:25:00,75.1,71.6,30.03,SSW,202,0.0,0.0,89,0.00,,,0.00,Wunderground v.1.15,2013-05-12 04:25:00,
2013-05-12 00:30:00,75.0,71.5,30.03,SSW,202,0.0,0.0,89,0.00,,,0.00,Wunderground v.1.15,2013-05-12 04:30:00,
2013-05-12 00:35:00,74.9,71.4,30.02,SSW,202,0.0,0.0,89,0.00,,,0.00,Wunderground v.1.15,2013-05-12 04:35:00,
2013-05-12 00:40:00,74.9,71.4,30.02,SSW,202,0.0,0.0,89,0.00,,,0.00,Wunderground v.1.15,2013-05-12 04:40:00,
2013-05-12 00:45:00,74.8,71.3,30.02,SSW,202,0.0,0.0,89,0.00,,,0.00,Wunderground v.1.15,2013-05-12 04:45:00,
2013-05-12 00:55:00,74.6,71.1,30.02,SSW,202,0.0,0.0,89,0.00,,,0.00,Wunderground v.1.15,2013-05-12 04:55:00,
2013-05-12 01:00:00,74.6,71.1,30.02,SSW,202,0.0,0.0,89,0.00,,,0.00,Wunderground v.1.15,2013-05-12 05:00:00,
2013-05-12 01:05:00,74.6,71.1,30.02,SSW,202,0.0,0.0,89,0.00,,,0.00,Wunderground v.1.15,2013-05-12 05:05:00,
2013-05-12 01:15:00,74.5,71.0,30.02,SSW,202,0.0,0.0,89,0.00,,,0.00,Wunderground v.1.15,2013-05-12 05:15:00,
2013-05-12 01:25:00,74.4,70.9,30.02,SSW,202,0.0,0.0,89,0.00,,,0.00,Wunderground v.1.15,2013-05-12 05:25:00,
2013-05-12 01:30:00,74.3,71.2,30.02,SSW,202,0.0,0.0,90,0.00,,,0.00,Wunderground v.1.15,2013-05-12 05:30:00,
2013-05-12 01:40:00,74.2,71.1,30.01,SSW,202,0.0,0.0,90,0.00,,,0.00,Wunderground v.1.15,2013-05-12 05:40:00,
2013-05-12 01:50:00,74.2,71.1,30.01,SSW,202,0.0,0.0,90,0.00,,,0.00,Wunderground v.1.15,2013-05-12 05:50:00,
2013-05-12 01:55:00,74.2,71.1,30.01,SSW,202,0.0,0.0,90,0.00,,,0.00,Wunderground v.1.15,2013-05-12 05:55:00,
2013-05-12 02:05:00,74.2,71.1,30.00,SSW,202,0.0,0.0,90,0.00,,,0.00,Wunderground v.1.15,2013-05-12 06:05:00,
2013-05-12 02:15:00,74.4,71.3,29.98,SSW,202,0.0,0.0,90,0.00,,,0.00,Wunderground v.1.15,2013-05-12 06:15:00,
2013-05-12 02:25:00,74.4,71.3,29.98,SSW,202,0.0,0.0,90,0.00,,,0.00,Wunderground v.1.15,2013-05-12 06:25:00,
2013-05-12 02:35:00,74.5,71.0,29.97,SSW,202,0.0,0.0,89,0.00,,,0.00,Wunderground v.1.15,2013-05-12 06:35:00,
2013-05-12 02:40:00,74.5,71.4,29.96,SSW,202,0.0,0.0,90,0.00,,,0.00,Wunderground v.1.15,2013-05-12 06:40:00,
2013-05-12 02:50:00,74.7,71.6,29.96,SSW,202,0.0,0.0,90,0.00,,,0.00,Wunderground v.1.15,2013-05-12 06:50:00,
2013-05-12 03:00:00,74.8,71.7,29.95,SSW,202,0.0,0.0,90,0.00,,,0.00,Wunderground v.1.15,2013-05-12 07:00:00,
2013-05-12 03:10:00,74.9,71.8,29.95,SSW,202,0.0,0.0,90,0.00,,,0.00,Wunderground v.1.15,2013-05-12 07:10:00,
2013-05-12 03:15:00,75.0,71.9,29.94,SSW,202,0.0,0.0,90,0.00,,,0.00,Wunderground v.1.15,2013-05-12 07:15:00,
2013-05-12 03:25:00,75.1,72.0,29.95,SSW,202,0.0,0.0,90,0.00,,,0.00,Wunderground v.1.15,2013-05-12 07:25:00,
2013-05-12 03:35:00,75.1,72.0,29.95,SSW,202,0.0,0.0,90,0.00,,,0.00,Wunderground v.1.15,2013-05-12 07:35:00,
2013-05-12 03:45:00,75.3,72.2,29.94,SSW,202,0.0,0.0,90,0.00,,,0.00,Wunderground v.1.15,2013-05-12 07:45:00,
2013-05-12 03:55:00,75.3,72.2,29.94,SSW,202,0.0,0.0,90,0.00,,,0.00,Wunderground v.1.15,2013-05-12 07:55:00,
2013-05-12 04:00:00,75.3,72.2,29.94,SSW,202,0.0,0.0,90,0.00,,,0.00,Wunderground v.1.15,2013-05-12 08:00:00,
2013-05-12 04:10:00,75.3,72.2,29.94,SSW,202,0.0,0.0,90,0.00,,,0.00,Wunderground v.1.15,2013-05-12 08:10:00,
2013-05-12 04:20:00,75.3,72.2,29.94,SSW,202,0.0,0.0,90,0.00,,,0.00,Wunderground v.1.15,2013-05-12 08:20:00,
2013-05-12 04:30:00,75.1,72.3,29.95,SSW,202,0.0,0.0,91,0.00,,,0.00,Wunderground v.1.15,2013-05-12 08:30:00,
2013-05-12 04:35:00,75.1,72.3,29.95,SSW,202,0.0,0.0,91,0.00,,,0.00,Wunderground v.1.15,2013-05-12 08:35:00,
2013-05-12 04:45:00,75.0,72.2,29.95,SSW,202,0.0,0.0,91,0.00,,,0.00,Wunderground v.1.15,2013-05-12 08:45:00,
2013-05-12 04:55:00,74.8,72.0,29.95,SSW,202,0.0,0.0,91,0.00,,,0.00,Wunderground v.1.15,2013-05-12 08:55:00,
2013-05-12 05:00:00,74.8,72.0,29.95,SSW,202,0.0,0.0,91,0.00,,,0.00,Wunderground v.1.15,2013-05-12 09:00:00,
2013-05-12 05:10:00,74.7,71.9,29.95,SSW,202,0.0,0.0,91,0.00,,,0.00,Wunderground v.1.15,2013-05-12 09:10:00,
2013-05-12 05:20:00,74.7,71.9,29.95,SSW,202,0.0,0.0,91,0.00,,,0.00,Wunderground v.1.15,2013-05-12 09:20:00,
2013-05-12 05:30:00,74.8,72.0,29.94,SSW,202,0.0,0.0,91,0.00,,,0.00,Wunderground v.1.15,2013-05-12 09:30:00,
2013-05-12 05:35:00,74.8,72.0,29.95,SSW,202,0.0,0.0,91,0.00,,,0.00,Wunderground v.1.15,2013-05-12 09:35:00,
2013-05-12 05:45:00,75.0,72.2,29.96,SSW,202,0.0,0.0,91,0.00,,,0.00,Wunderground v.1.15,2013-05-12 09:45:00,
2013-05-12 05:55:00,74.8,72.0,29.96,SSW,202,0.0,0.0,91,0.00,,,0.00,Wunderground v.1.15,2013-05-12 09:55:00,
2013-05-12 06:05:00,75.0,72.2,29.96,SSW,202,0.0,0.0,91,0.00,,,0.00,Wunderground v.1.15,2013-05-12 10:05:00,
2013-05-12 06:10:00,74.9,72.1,29.96,SSW,202,0.0,0.0,91,0.00,,,0.00,Wunderground v.1.15,2013-05-12 10:10:00,
2013-05-12 06:20:00,74.9,72.1,29.96,SSW,202,0.0,0.0,91,0.00,,,0.00,Wunderground v.1.15,2013-05-12 10:20:00,
2013-05-12 06:30:00,74.9,72.1,29.97,SSW,202,0.0,0.0,91,0.00,,,0.00,Wunderground v.1.15,2013-05-12 10:30:00,
2013-05-12 06:40:00,74.9,72.1,29.98,SSW,202,0.0,0.0,91,0.00,,,0.00,Wunderground v.1.15,2013-05-12 10:40:00,
2013-05-12 06:45:00,75.0,72.2,29.98,SSW,202,0.0,0.0,91,0.00,,,0.00,Wunderground v.1.15,2013-05-12 10:45:00,
2013-05-12 06:55:00,75.0,72.2,29.98,SSW,202,0.0,0.0,91,0.00,,,0.00,Wunderground v.1.15,2013-05-12 10:55:00,
2013-05-12 07:00:00,75.1,72.3,29.99,SSW,202,0.0,0.0,91,0.00,,,0.00,Wunderground v.1.15,2013-05-12 11:00:00,
2013-05-12 07:10:00,75.2,72.4,29.99,SSW,202,0.0,0.0,91,0.00,,,0.00,Wunderground v.1.15,2013-05-12 11:10:00,
2013-05-12 07:20:00,75.2,72.4,29.99,SSW,202,0.0,0.0,91,0.00,,,0.00,Wunderground v.1.15,2013-05-12 11:20:00,
2013-05-12 07:30:00,75.4,72.6,30.00,SSW,202,0.0,0.0,91,0.00,,,0.00,Wunderground v.1.15,2013-05-12 11:30:00,
2013-05-12 07:35:00,75.6,72.8,30.00,SSW,202,0.0,0.0,91,0.00,,,0.00,Wunderground v.1.15,2013-05-12 11:35:00,
2013-05-12 07:45:00,76.0,73.2,30.00,SSW,203,0.0,3.0,91,0.00,,,0.00,Wunderground v.1.15,2013-05-12 11:45:00,
2013-05-12 07:50:00,76.3,73.5,30.00,SSW,201,1.0,1.0,91,0.00,,,0.00,Wunderground v.1.15,2013-05-12 11:50:00,
2013-05-12 08:00:00,76.7,73.9,30.00,WSW,252,2.0,5.0,91,0.00,,,0.00,Wunderground v.1.15,2013-05-12 12:00:00,
2013-05-12 08:05:00,76.9,74.1,30.00,SSW,198,3.0,5.0,91,0.00,,,0.00,Wunderground v.1.15,2013-05-12 12:05:00,
2013-05-12 08:10:00,77.0,73.8,30.01,SSW,206,3.0,3.0,90,0.00,,,0.00,Wunderground v.1.15,2013-05-12 12:10:00,
2013-05-12 08:20:00,77.4,74.2,30.01,WSW,246,2.0,2.0,90,0.00,,,0.00,Wunderground v.1.15,2013-05-12 12:20:00,
2013-05-12 08:25:00,77.6,74.4,30.01,SW,220,2.0,2.0,90,0.00,,,0.00,Wunderground v.1.15,2013-05-12 12:25:00,
2013-05-12 08:30:00,77.6,74.4,30.01,WSW,238,1.0,1.0,90,0.00,,,0.00,Wunderground v.1.15,2013-05-12 12:30:00,
2013-05-12 08:40:00,77.7,74.2,30.02,WSW,237,2.0,3.0,89,0.00,,,0.00,Wunderground v.1.15,2013-05-12 12:40:00,
2013-05-12 08:45:00,77.9,74.4,30.02,SW,221,3.0,6.0,89,0.00,,,0.00,Wunderground v.1.15,2013-05-12 12:45:00,
2013-05-12 08:50:00,78.0,74.2,30.02,SW,232,4.0,4.0,88,0.00,,,0.00,Wunderground v.1.15,2013-05-12 12:50:00,
2013-05-12 08:55:00,78.1,74.3,30.02,WSW,238,3.0,4.0,88,0.00,,,0.00,Wunderground v.1.15,2013-05-12 12:55:00,
2013-05-12 09:05:00,78.5,74.3,30.02,SW,215,4.0,8.0,87,0.00,,,0.00,Wunderground v.1.15,2013-05-12 13:05:00,
2013-05-12 09:10:00,78.7,74.2,30.02,SSW,202,5.0,6.0,86,0.00,,,0.00,Wunderground v.1.15,2013-05-12 13:10:00,
2013-05-12 09:15:00,78.6,74.1,30.03,WSW,246,5.0,6.0,86,0.00,,,0.00,Wunderground v.1.15,2013-05-12 13:15:00,
2013-05-12 09:20:00,78.4,73.9,30.03,WSW,238,3.0,3.0,86,0.00,,,0.00,Wunderground v.1.15,2013-05-12 13:20:00,
2013-05-12 09:30:00,78.8,74.3,30.02,WSW,240,3.0,4.0,86,0.00,,,0.00,Wunderground v.1.15,2013-05-12 13:30:00,
2013-05-12 09:35:00,79.1,73.8,30.02,SW,229,3.0,4.0,84,0.00,,,0.00,Wunderground v.1.15,2013-05-12 13:35:00,
2013-05-12 09:45:00,79.3,73.7,30.03,West,264,3.0,3.0,83,0.00,,,0.00,Wunderground v.1.15,2013-05-12 13:45:00,
2013-05-12 09:50:00,79.5,73.2,30.02,WSW,247,4.0,5.0,81,0.00,,,0.00,Wunderground v.1.15,2013-05-12 13:50:00,
2013-05-12 09:55:00,79.6,72.9,30.02,SW,227,4.0,5.0,80,0.00,,,0.00,Wunderground v.1.15,2013-05-12 13:55:00,
2013-05-12 10:00:00,79.8,73.1,30.02,SSW,212,4.0,4.0,80,0.00,,,0.00,Wunderground v.1.15,2013-05-12 14:00:00,
2013-05-12 10:10:00,80.2,72.7,30.02,SW,214,5.0,5.0,78,0.00,,,0.00,Wunderground v.1.15,2013-05-12 14:10:00,
2013-05-12 10:15:00,80.6,73.1,30.02,WSW,238,5.0,9.0,78,0.00,,,0.00,Wunderground v.1.15,2013-05-12 14:15:00,
2013-05-12 10:20:00,80.5,73.0,30.03,SW,221,5.0,5.0,78,0.00,,,0.00,Wunderground v.1.15,2013-05-12 14:20:00,
2013-05-12 10:25:00,80.4,72.5,30.03,SSW,193,5.0,5.0,77,0.00,,,0.00,Wunderground v.1.15,2013-05-12 14:25:00,
2013-05-12 10:30:00,80.7,72.8,30.03,WSW,242,4.0,5.0,77,0.00,,,0.00,Wunderground v.1.15,2013-05-12 14:30:00,
2013-05-12 10:40:00,81.0,72.3,30.03,SW,234,5.0,5.0,75,0.00,,,0.00,Wunderground v.1.15,2013-05-12 14:40:00,
2013-05-12 10:50:00,80.6,72.3,30.03,WSW,247,5.0,6.0,76,0.00,,,0.00,Wunderground v.1.15,2013-05-12 14:50:00,
2013-05-12 10:55:00,80.9,73.4,30.02,SSW,196,4.0,6.0,78,0.00,,,0.00,Wunderground v.1.15,2013-05-12 14:55:00,
2013-05-12 11:00:00,81.4,72.7,30.03,SW,221,3.0,3.0,75,0.00,,,0.00,Wunderground v.1.15,2013-05-12 15:00:00,
2013-05-12 11:05:00,81.4,72.7,30.03,West,271,3.0,4.0,75,0.00,,,0.00,Wunderground v.1.15,2013-05-12 15:05:00,
2013-05-12 11:10:00,81.3,72.6,30.03,SW,234,4.0,6.0,75,0.00,,,0.00,Wunderground v.1.15,2013-05-12 15:10:00,
2013-05-12 11:20:00,81.4,72.7,30.03,South,177,5.0,5.0,75,0.00,,,0.00,Wunderground v.1.15,2013-05-12 15:20:00,
2013-05-12 11:25:00,81.7,72.6,30.02,WNW,301,4.0,5.0,74,0.00,,,0.00,Wunderground v.1.15,2013-05-12 15:25:00,
2013-05-12 11:30:00,81.6,72.5,30.03,SW,222,3.0,3.0,74,0.00,,,0.00,Wunderground v.1.15,2013-05-12 15:30:00,
2013-05-12 11:35:00,81.5,72.8,30.03,South,174,3.0,6.0,75,0.00,,,0.00,Wunderground v.1.15,2013-05-12 15:35:00,
2013-05-12 11:40:00,82.0,72.9,30.02,WSW,252,3.0,3.0,74,0.00,,,0.00,Wunderground v.1.15,2013-05-12 15:40:00,
2013-05-12 11:50:00,82.2,72.7,30.02,SW,225,3.0,3.0,73,0.00,,,0.00,Wunderground v.1.15,2013-05-12 15:50:00,
2013-05-12 11:55:00,82.5,73.4,30.02,WSW,238,3.0,3.0,74,0.00,,,0.00,Wunderground v.1.15,2013-05-12 15:55:00,
2013-05-12 12:00:00,82.9,73.4,30.02,SW,232,3.0,3.0,73,0.00,,,0.00,Wunderground v.1.15,2013-05-12 16:00:00,
2013-05-12 12:05:00,82.7,72.7,30.02,WSW,254,3.0,4.0,72,0.00,,,0.00,Wunderground v.1.15,2013-05-12 16:05:00,
2013-05-12 12:10:00,82.8,73.3,30.02,WSW,238,4.0,4.0,73,0.00,,,0.00,Wunderground v.1.15,2013-05-12 16:10:00,
2013-05-12 12:15:00,83.4,74.2,30.02,WNW,285,3.0,4.0,74,0.00,,,0.00,Wunderground v.1.15,2013-05-12 16:15:00,
2013-05-12 12:25:00,83.7,74.1,30.02,West,271,3.0,4.0,73,0.00,,,0.00,Wunderground v.1.15,2013-05-12 16:25:00,
2013-05-12 12:30:00,83.3,74.1,30.02,WSW,247,3.0,3.0,74,0.00,,,0.00,Wunderground v.1.15,2013-05-12 16:30:00,
2013-05-12 12:35:00,82.7,72.7,30.02,SSW,194,3.0,3.0,72,0.00,,,0.00,Wunderground v.1.15,2013-05-12 16:35:00,
2013-05-12 12:40:00,82.6,72.7,30.02,WSW,242,4.0,4.0,72,0.00,,,0.00,Wunderground v.1.15,2013-05-12 16:40:00,
2013-05-12 12:45:00,82.8,72.8,30.02,SSW,211,5.0,5.0,72,0.00,,,0.00,Wunderground v.1.15,2013-05-12 16:45:00,
2013-05-12 12:55:00,83.3,72.9,30.02,WSW,246,5.0,9.0,71,0.00,,,0.00,Wunderground v.1.15,2013-05-12 16:55:00,
2013-05-12 13:00:00,83.4,72.6,30.01,SW,235,5.0,5.0,70,0.00,,,0.00,Wunderground v.1.15,2013-05-12 17:00:00,
2013-05-12 13:05:00,83.6,72.3,30.01,SW,233,4.0,5.0,69,0.00,,,0.00,Wunderground v.1.15,2013-05-12 17:05:00,
2013-05-12 13:10:00,83.2,72.8,30.01,SSW,211,4.0,4.0,71,0.00,,,0.00,Wunderground v.1.15,2013-05-12 17:10:00,
2013-05-12 13:15:00,83.0,72.6,30.01,WSW,237,4.0,6.0,71,0.00,,,0.00,Wunderground v.1.15,2013-05-12 17:15:00,
2013-05-12 13:20:00,83.0,72.6,30.00,SW,232,5.0,5.0,71,0.00,,,0.00,Wunderground v.1.15,2013-05-12 17:20:00,
2013-05-12 13:25:00,83.0,72.2,30.00,SSW,200,5.0,5.0,70,0.00,,,0.00,Wunderground v.1.15,2013-05-12 17:25:00,
2013-05-12 13:30:00,83.2,72.4,30.00,WSW,255,5.0,5.0,70,0.00,,,0.00,Wunderground v.1.15,2013-05-12 17:30:00,
2013-05-12 13:35:00,83.2,72.4,30.00,West,275,4.0,5.0,70,0.00,,,0.00,Wunderground v.1.15,2013-05-12 17:35:00,
2013-05-12 13:40:00,83.6,72.8,30.00,WSW,248,3.0,3.0,70,0.00,,,0.00,Wunderground v.1.15,2013-05-12 17:40:00,
2013-05-12 13:45:00,84.1,73.7,30.00,SSW,208,3.0,3.0,71,0.00,,,0.00,Wunderground v.1.15,2013-05-12 17:45:00,
2013-05-12 13:50:00,84.0,73.2,30.00,SSW,209,4.0,7.0,70,0.00,,,0.00,Wunderground v.1.15,2013-05-12 17:50:00,
2013-05-12 14:00:00,83.4,73.0,30.00,WSW,250,4.0,4.0,71,0.00,,,0.00,Wunderground v.1.15,2013-05-12 18:00:00,
2013-05-12 14:05:00,83.4,72.6,30.00,SW,217,4.0,7.0,70,0.00,,,0.00,Wunderground v.1.15,2013-05-12 18:05:00,
2013-05-12 14:10:00,83.4,73.0,30.00,WSW,237,4.0,4.0,71,0.00,,,0.00,Wunderground v.1.15,2013-05-12 18:10:00,
2013-05-12 14:20:00,83.5,73.1,30.00,West,266,5.0,5.0,71,0.00,,,0.00,Wunderground v.1.15,2013-05-12 18:20:00,
2013-05-12 14:25:00,83.2,72.4,30.00,SW,227,5.0,9.0,70,0.00,,,0.00,Wunderground v.1.15,2013-05-12 18:25:00,
2013-05-12 14:30:00,83.0,73.4,30.00,WSW,244,5.0,6.0,73,0.00,,,0.00,Wunderground v.1.15,2013-05-12 18:30:00,
2013-05-12 14:40:00,83.9,73.9,30.00,WSW,237,3.0,4.0,72,0.00,,,0.00,Wunderground v.1.15,2013-05-12 18:40:00,
2013-05-12 14:45:00,83.9,73.9,30.00,WSW,240,4.0,4.0,72,0.00,,,0.00,Wunderground v.1.15,2013-05-12 18:45:00,
2013-05-12 14:50:00,84.0,74.0,30.00,SW,234,3.0,5.0,72,0.00,,,0.00,Wunderground v.1.15,2013-05-12 18:50:00,
2013-05-12 14:55:00,84.1,74.1,30.00,SW,235,3.0,5.0,72,0.00,,,0.00,Wunderground v.1.15,2013-05-12 18:55:00,
2013-05-12 15:05:00,84.1,74.5,30.00,West,263,3.0,3.0,73,0.00,,,0.00,Wunderground v.1.15,2013-05-12 19:05:00,
2013-05-12 15:10:00,84.1,74.1,30.00,WSW,237,3.0,5.0,72,0.00,,,0.00,Wunderground v.1.15,2013-05-12 19:10:00,
2013-05-12 15:15:00,83.7,73.7,30.00,SW,224,4.0,5.0,72,0.00,,,0.00,Wunderground v.1.15,2013-05-12 19:15:00,
2013-05-12 15:25:00,84.0,73.6,29.99,WSW,256,3.0,4.0,71,0.00,,,0.00,Wunderground v.1.15,2013-05-12 19:25:00,
2013-05-12 15:30:00,84.2,73.8,30.00,NW,304,2.0,3.0,71,0.00,,,0.00,Wunderground v.1.15,2013-05-12 19:30:00,
2013-05-12 15:35:00,84.1,73.7,30.00,West,275,3.0,4.0,71,0.00,,,0.00,Wunderground v.1.15,2013-05-12 19:35:00,
2013-05-12 15:45:00,84.2,74.2,30.00,SW,231,2.0,3.0,72,0.00,,,0.00,Wunderground v.1.15,2013-05-12 19:45:00,
2013-05-12 15:50:00,84.0,73.6,29.99,SW,234,3.0,9.0,71,0.00,,,0.00,Wunderground v.1.15,2013-05-12 19:50:00,
2013-05-12 15:55:00,83.6,74.0,29.99,WSW,238,4.0,9.0,73,0.00,,,0.00,Wunderground v.1.15,2013-05-12 19:55:00,
2013-05-12 16:00:00,83.4,73.4,29.99,WNW,296,4.0,4.0,72,0.00,,,0.00,Wunderground v.1.15,2013-05-12 20:00:00,
2013-05-12 16:05:00,83.8,74.2,29.99,WSW,248,3.0,5.0,73,0.00,,,0.00,Wunderground v.1.15,2013-05-12 20:05:00,
2013-05-12 16:15:00,84.0,74.0,29.99,West,280,3.0,3.0,72,0.00,,,0.00,Wunderground v.1.15,2013-05-12 20:15:00,
2013-05-12 16:20:00,84.0,74.4,29.99,NW,312,2.0,4.0,73,0.00,,,0.00,Wunderground v.1.15,2013-05-12 20:20:00,
2013-05-12 16:25:00,83.9,74.3,29.99,WNW,282,1.0,4.0,73,0.00,,,0.00,Wunderground v.1.15,2013-05-12 20:25:00,
2013-05-12 16:30:00,83.7,74.5,29.99,SW,235,2.0,2.0,74,0.00,,,0.00,Wunderground v.1.15,2013-05-12 20:30:00,
2013-05-12 16:35:00,84.0,74.8,29.99,WNW,300,3.0,3.0,74,0.00,,,0.00,Wunderground v.1.15,2013-05-12 20:35:00,
2013-05-12 16:45:00,83.7,74.1,29.99,WNW,287,3.0,3.0,73,0.00,,,0.00,Wunderground v.1.15,2013-05-12 20:45:00,
2013-05-12 16:50:00,83.1,74.4,29.99,WNW,299,2.0,2.0,75,0.00,,,0.00,Wunderground v.1.15,2013-05-12 20:50:00,
2013-05-12 16:55:00,82.9,74.2,29.99,West,265,2.0,2.0,75,0.00,,,0.00,Wunderground v.1.15,2013-05-12 20:55:00,
2013-05-12 17:00:00,82.9,74.2,29.99,WSW,250,2.0,2.0,75,0.00,,,0.00,Wunderground v.1.15,2013-05-12 21:00:00,
2013-05-12 17:10:00,82.9,73.8,29.99,NW,307,3.0,3.0,74,0.00,,,0.00,Wunderground v.1.15,2013-05-12 21:10:00,
2013-05-12 17:15:00,82.6,73.5,29.99,WNW,289,2.0,3.0,74,0.00,,,0.00,Wunderground v.1.15,2013-05-12 21:15:00,
2013-05-12 17:20:00,82.2,73.9,29.99,SW,235,2.0,2.0,76,0.00,,,0.00,Wunderground v.1.15,2013-05-12 21:20:00,
2013-05-12 17:30:00,82.3,73.2,29.99,WSW,240,1.0,4.0,74,0.00,,,0.00,Wunderground v.1.15,2013-05-12 21:30:00,
2013-05-12 17:40:00,82.4,72.9,29.99,WSW,257,1.0,4.0,73,0.00,,,0.00,Wunderground v.1.15,2013-05-12 21:40:00,
2013-05-12 17:45:00,82.3,72.8,29.98,WSW,248,2.0,6.0,73,0.00,,,0.00,Wunderground v.1.15,2013-05-12 21:45:00,
2013-05-12 17:50:00,82.1,73.0,29.98,NW,304,3.0,3.0,74,0.00,,,0.00,Wunderground v.1.15,2013-05-12 21:50:00,
2013-05-12 17:55:00,82.0,73.3,29.98,WNW,289,2.0,3.0,75,0.00,,,0.00,Wunderground v.1.15,2013-05-12 21:55:00,
2013-05-12 18:05:00,81.7,73.8,29.98,WNW,303,0.0,0.0,77,0.00,,,0.00,Wunderground v.1.15,2013-05-12 22:05:00,
2013-05-12 18:10:00,81.4,73.5,29.98,WNW,294,0.0,0.0,77,0.00,,,0.00,Wunderground v.1.15,2013-05-12 22:10:00,
2013-05-12 18:15:00,80.9,73.4,29.98,WNW,300,0.0,1.0,78,0.00,,,0.00,Wunderground v.1.15,2013-05-12 22:15:00,
2013-05-12 18:20:00,80.3,73.2,29.98,WNW,296,1.0,1.0,79,0.00,,,0.00,Wunderground v.1.15,2013-05-12 22:20:00,
2013-05-12 18:25:00,80.0,72.9,29.98,WNW,296,0.0,1.0,79,0.00,,,0.00,Wunderground v.1.15,2013-05-12 22:25:00,
2013-05-12 18:35:00,79.6,72.9,29.98,West,277,0.0,0.0,80,0.00,,,0.00,Wunderground v.1.15,2013-05-12 22:35:00,
2013-05-12 18:45:00,79.3,73.0,29.99,West,278,0.0,0.0,81,0.00,,,0.00,Wunderground v.1.15,2013-05-12 22:45:00,
2013-05-12 18:50:00,79.1,72.4,29.99,WNW,290,0.0,0.0,80,0.00,,,0.00,Wunderground v.1.15,2013-05-12 22:50:00,
2013-05-12 18:55:00,78.9,72.2,29.98,WNW,290,0.0,0.0,80,0.00,,,0.00,Wunderground v.1.15,2013-05-12 22:55:00,
2013-05-12 19:00:00,78.7,71.6,29.99,WNW,290,0.0,0.0,79,0.00,,,0.00,Wunderground v.1.15,2013-05-12 23:00:00,
2013-05-12 19:10:00,78.4,71.0,29.98,NW,306,0.0,0.0,78,0.00,,,0.00,Wunderground v.1.15,2013-05-12 23:10:00,
2013-05-12 19:15:00,78.4,71.0,29.99,WSW,251,0.0,0.0,78,0.00,,,0.00,Wunderground v.1.15,2013-05-12 23:15:00,
2013-05-12 19:20:00,78.5,71.1,29.99,West,261,0.0,2.0,78,0.00,,,0.00,Wunderground v.1.15,2013-05-12 23:20:00,
2013-05-12 19:25:00,78.4,71.0,29.99,West,263,0.0,2.0,78,0.00,,,0.00,Wunderground v.1.15,2013-05-12 23:25:00,
2013-05-12 19:30:00,78.3,70.9,29.99,West,269,0.0,0.0,78,0.00,,,0.00,Wunderground v.1.15,2013-05-12 23:30:00,
2013-05-12 19:35:00,78.2,70.8,29.99,West,269,0.0,0.0,78,0.00,,,0.00,Wunderground v.1.15,2013-05-12 23:35:00,
2013-05-12 19:40:00,78.1,70.7,30.00,West,269,0.0,0.0,78,0.00,,,0.00,Wunderground v.1.15,2013-05-12 23:40:00,
2013-05-12 19:45:00,78.0,70.6,30.00,West,269,0.0,0.0,78,0.00,,,0.00,Wunderground v.1.15,2013-05-12 23:45:00,
2013-05-12 19:50:00,77.9,70.9,30.00,West,270,0.0,0.0,79,0.00,,,0.00,Wunderground v.1.15,2013-05-12 23:50:00,
2013-05-12 19:55:00,77.8,70.8,30.01,West,270,0.0,0.0,79,0.00,,,0.00,Wunderground v.1.15,2013-05-12 23:55:00,
2013-05-12 20:00:00,77.7,71.0,30.01,West,270,0.0,0.0,80,0.00,,,0.00,Wunderground v.1.15,2013-05-13 00:00:00,
2013-05-12 20:10:00,77.6,70.9,30.01,West,270,0.0,0.0,80,0.00,,,0.00,Wunderground v.1.15,2013-05-13 00:10:00,
2013-05-12 20:15:00,77.4,70.7,30.01,West,265,0.0,0.0,80,0.00,,,0.00,Wunderground v.1.15,2013-05-13 00:15:00,
2013-05-12 20:20:00,77.3,70.6,30.01,West,265,0.0,1.0,80,0.00,,,0.00,Wunderground v.1.15,2013-05-13 00:20:00,
2013-05-12 20:25:00,77.1,70.1,30.01,West,265,0.0,1.0,79,0.00,,,0.00,Wunderground v.1.15,2013-05-13 00:25:00,
2013-05-12 20:30:00,77.0,70.0,30.01,West,265,0.0,0.0,79,0.00,,,0.00,Wunderground v.1.15,2013-05-13 00:30:00,
2013-05-12 20:40:00,76.9,69.9,30.01,West,265,0.0,0.0,79,0.00,,,0.00,Wunderground v.1.15,2013-05-13 00:40:00,
2013-05-12 20:45:00,76.8,70.2,30.01,West,265,0.0,0.0,80,0.00,,,0.00,Wunderground v.1.15,2013-05-13 00:45:00,
2013-05-12 20:50:00,76.8,70.2,30.01,West,265,0.0,0.0,80,0.00,,,0.00,Wunderground v.1.15,2013-05-13 00:50:00,
2013-05-12 20:55:00,76.7,70.1,30.01,West,265,0.0,0.0,80,0.00,,,0.00,Wunderground v.1.15,2013-05-13 00:55:00,
2013-05-12 21:05:00,76.5,69.9,30.01,West,265,0.0,0.0,80,0.00,,,0.00,Wunderground v.1.15,2013-05-13 01:05:00,
2013-05-12 21:10:00,76.5,69.9,30.02,West,265,0.0,0.0,80,0.00,,,0.00,Wunderground v.1.15,2013-05-13 01:10:00,
2013-05-12 21:20:00,76.4,69.8,30.01,West,265,0.0,0.0,80,0.00,,,0.00,Wunderground v.1.15,2013-05-13 01:20:00,
2013-05-12 21:25:00,76.3,69.7,30.02,West,265,0.0,0.0,80,0.00,,,0.00,Wunderground v.1.15,2013-05-13 01:25:00,
2013-05-12 21:30:00,76.2,69.6,30.02,West,265,0.0,0.0,80,0.00,,,0.00,Wunderground v.1.15,2013-05-13 01:30:00,
2013-05-12 21:40:00,76.1,69.5,30.02,West,265,0.0,0.0,80,0.00,,,0.00,Wunderground v.1.15,2013-05-13 01:40:00,
2013-05-12 21:45:00,76.1,69.5,30.02,West,265,0.0,0.0,80,0.00,,,0.00,Wunderground v.1.15,2013-05-13 01:45:00,
2013-05-12 21:55:00,75.9,69.6,30.02,West,265,0.0,0.0,81,0.00,,,0.00,Wunderground v.1.15,2013-05-13 01:55:00,
2013-05-12 22:05:00,75.8,69.2,30.03,West,265,0.0,0.0,80,0.00,,,0.00,Wunderground v.1.15,2013-05-13 02:05:00,
2013-05-12 22:10:00,75.7,69.5,30.02,West,265,0.0,0.0,81,0.00,,,0.00,Wunderground v.1.15,2013-05-13 02:10:00,
2013-05-12 22:20:00,75.6,69.4,30.03,West,265,0.0,0.0,81,0.00,,,0.00,Wunderground v.1.15,2013-05-13 02:20:00,
2013-05-12 22:25:00,75.5,69.3,30.03,West,265,0.0,0.0,81,0.00,,,0.00,Wunderground v.1.15,2013-05-13 02:25:00,
2013-05-12 22:35:00,75.5,69.6,30.03,West,265,0.0,0.0,82,0.00,,,0.00,Wunderground v.1.15,2013-05-13 02:35:00,
2013-05-12 22:40:00,75.4,69.5,30.04,West,265,0.0,0.0,82,0.00,,,0.00,Wunderground v.1.15,2013-05-13 02:40:00,
2013-05-12 22:50:00,75.3,69.4,30.04,West,265,0.0,0.0,82,0.00,,,0.00,Wunderground v.1.15,2013-05-13 02:50:00,
2013-05-12 23:00:00,75.2,69.0,30.04,West,265,0.0,0.0,81,0.00,,,0.00,Wunderground v.1.15,2013-05-13 03:00:00,
2013-05-12 23:05:00,75.1,69.2,30.05,West,265,0.0,0.0,82,0.00,,,0.00,Wunderground v.1.15,2013-05-13 03:05:00,
2013-05-12 23:15:00,75.1,69.2,30.05,West,265,0.0,0.0,82,0.00,,,0.00,Wunderground v.1.15,2013-05-13 03:15:00,
2013-05-12 23:20:00,75.1,69.2,30.05,West,265,0.0,0.0,82,0.00,,,0.00,Wunderground v.1.15,2013-05-13 03:20:00,
2013-05-12 23:30:00,75.1,69.2,30.04,West,265,0.0,0.0,82,0.00,,,0.00,Wunderground v.1.15,2013-05-13 03:30:00,
2013-05-12 23:35:00,75.1,69.2,30.05,West,265,0.0,0.0,82,0.00,,,0.00,Wunderground v.1.15,2013-05-13 03:35:00,
2013-05-12 23:45:00,75.1,69.6,30.05,West,265,0.0,0.0,83,0.00,,,0.00,Wunderground v.1.15,2013-05-13 03:45:00,
2013-05-12 23:55:00,75.0,69.5,30.04,West,265,0.0,0.0,83,0.00,,,0.00,Wunderground v.1.15,2013-05-13 03:55:00,